Regional Weather Roundup
Issued by NWS

Home | Current Version | Previous Version | Graphics & Text | Print | Product List | Glossary On
Versions: 1 2 3 4 5 6 7 8 9 10 11 12 13 14 15 16 17 18 19 20 21 22 23 24 25 26 27 28 29 30 31 32 33 34 35 36 37 38 39 40 41 42 43 44 45 46 47 48 49 50
855
ASUS43 KDTX 232101
RWRMI
MICHIGAN HOURLY REGIONAL WEATHER ROUNDUP
NATIONAL WEATHER SERVICE DETROIT/PONTIAC MI
500 PM EDT SUN APR 23 2017

NOTE: "FAIR" INDICATES FEW OR NO CLOUDS BELOW 12,000 FEET WITH NO
SIGNIFICANT WEATHER AND/OR OBSTRUCTION TO VISIBILITY.

MIZ047>049-052>055-059>063-066>070-074>076-081>083-232200-
SOUTHEAST LOWER MICHIGAN

CITY           SKY/WX    TMP DP  RH WIND       PRES   REMARKS
ADRIAN         SUNNY     67  33  28 VRB5      30.05F
ALMA           SUNNY     69  32  25 NW9G21    30.02F
ANN ARBOR      SUNNY     65  38  36 SE12      30.04S
BAD AXE        SUNNY     53  39  59 NE9       30.07S
CARO           SUNNY     70  36  28 W9        30.01F
DETROIT CITY   SUNNY     64  41  42 S14G20    30.04F
DETROIT        MOSUNNY   64  35  34 S12       30.06F
FLINT          SUNNY     68  30  24 VRB5      30.03F
GROSSE ILE     SUNNY     55  45  67 S9        30.06F
HILLSDALE      SUNNY     68  30  24 NW5       30.03F
HOWELL         SUNNY     68  17  14 CALM      30.03F

CITY           SKY/WX    TMP DP  RH WIND       PRES   REMARKS
JACKSON        SUNNY     69  29  22 VRB5      30.03F
LAMBERTVILLE   SUNNY     64  26  23 SE5       30.05F
LANSING        SUNNY     69  29  22 VRB5      30.04F
LAPEER         FAIR      69  24  18 NW6       30.03F
MASON          SUNNY     67  34  28 W7        30.04F
MONROE         SUNNY     61  33  34 S10G17    30.06F
MT. CLEMENS    MOSUNNY   64  33  31 SE10      30.03F
PONTIAC        MOSUNNY   68  28  22 CALM      30.02F
PORT HOPE        N/A     44  39  82 NE8       30.07S
PORT HURON     SUNNY     68  27  21 CALM      30.03F
TRI CITIES     SUNNY     70  33  25 W8        30.01F
MIDLAND        FAIR      72  32  22 W6        30.00F
TROY           SUNNY     71  20  14 SE7       30.05S
SAGINAW HB     SUNNY     70  28  21 SW7       30.01F
$$
MIZ043>046-050>051-056>058-064>065-071>073-077>080-232200-
SOUTHWEST LOWER MICHIGAN

CITY           SKY/WX    TMP DP  RH WIND       PRES   REMARKS
BATTLE CREEK   SUNNY     69  26  20 N7        30.04F
BENTON HARBOR  SUNNY     61  30  31 VRB7      30.07S
BIG RAPIDS     SUNNY     68  30  24 NW3       30.02S
COLDWATER      SUNNY     67  28  22 CALM      30.03F
FREMONT        FAIR      68  30  24 W13G20    30.03S
HOLLAND        SUNNY     64  32  30 NW6       30.07F
GRAND RAPIDS   MOSUNNY   69  32  25 VRB7      30.04F
IONIA          FAIR      69  30  23 SW7       30.03F
KALAMAZOO      SUNNY     70  20  15 CALM      30.04F
LUDINGTON      SUNNY     53  40  61 N7        30.07S
MARSHALL       SUNNY     69  24  18 SE3       30.03F
MOUNT PLEASANT SUNNY     70  32  25 W9        30.01S
MUSKEGON       SUNNY     59  34  39 W12       30.07S
SOUTH HAVEN    SUNNY     62  29  29 W7        30.07S
$$
MIZ016>042-232200-
NORTHERN LOWER MICHIGAN

CITY           SKY/WX    TMP DP  RH WIND       PRES   REMARKS
ALPENA         SUNNY     52  34  50 N16G24    30.08F
BEAVER ISLAND  MOSUNNY   42  26  53 N8        30.16R
BELLAIRE       SUNNY     48  32  54 N7        30.12S
CADILLAC       SUNNY     59  39  46 N10G16    30.04S
CHARLEVOIX     PTSUNNY   40  32  74 N9        30.17S WCI  33
FRANKFORT      MOSUNNY   45  30  57 N12G20    30.12R
GAYLORD        PTSUNNY   54  34  46 VRB7      30.06S
GRAYLING       MOSUNNY   62  37  40 N10G22    30.04S
HARBOR SPRINGS MOSUNNY   46  30  53 NW8       30.12S
HOUGHTON LAKE  SUNNY     65  38  36 W10       30.03S
MANISTEE       SUNNY     50  38  63 NW12G18   30.06F
OSCODA         SUNNY     50  35  55 NE16G22   30.07S
PELLSTON       MOSUNNY   47  29  49 NW9       30.12F
ROGERS CITY    CLOUDY    44  30  59 NW9G17    30.12S
TRAVERSE CITY  MOSUNNY   43  31  62 NE15      30.12R
$$
MIZ007>008-015-232200-
EASTERN UPPER MICHIGAN

CITY           SKY/WX    TMP DP  RH WIND       PRES   REMARKS
KINROSS        MOSUNNY   37  24  59 NW16      30.13S WCI  28
MACKINAC ISLAN CLOUDY    45  25  45 N9        30.11F
NEWBERRY       MOSUNNY   36  20  51 N12G23    30.16R WCI  28
S. S. MARIE    CLOUDY    39  26  59 NW15      30.13S WCI  31
MUNISING         N/A     34  24  67 NE16      30.19F WCI  24
$$
MIZ004>006-011>014-085-232200-
CENTRAL UPPER MICHIGAN

CITY           SKY/WX    TMP DP  RH WIND       PRES   REMARKS
MANISTIQUE     CLOUDY    41  20  43 N12G18    30.15S
ESCANABA       CLOUDY    40  26  57 N9        30.16F WCI  34
MENOMINEE      SUNNY     41  32  70 E18       30.14F
SAWYER-GWINN   MOSUNNY   34  21  60 NE15      30.16F WCI  24
$$
MIZ001>003-009>011-084-232200-
WESTERN UPPER MICHIGAN

CITY           SKY/WX    TMP DP  RH WIND       PRES   REMARKS
IRON MOUNTAIN  CLOUDY    42  27  55 E7        30.11F
HOUGHTON       CLOUDY    34  24  67 E7        30.17F WCI  28
COPPER HARBOR    N/A     33  19  56 E7        30.20F WCI  27
IRONWOOD       CLOUDY    38  31  76 N7        30.13F WCI  33
$$

ABBREVIATIONS USED IN REMARKS
   TC - TEMPERATURE IN CELSIUS
  WCI - WIND CHILL INDEX
   HX - HEAT INDEX
  VSB - VISIBILITY





USA.gov is the U.S. government's official web portal to all federal, state and local government web resources and services.